Content
SEND FEEDBACK

Daily
Averages
Monthly
Summary
United States of America

YIGO, GUAM


Home > North America > United States > Guam
Elevation: 530 feet     Latitude: 13 32N     Longitude: 144 53E

WEATHER
 
SELECT A DAY
Number of Records: 213,810;   Date Range: 1/1/95 - 10/21/14
 
SHARE

PRINT THIS DATA

[ ← Previous Day ]
WEATHER ALMANAC - JULY 28, 2013
[ Next Day → ]
[ °C ]   °F
Weather ElementAverageHighLow
Temperature87 °F91 °F (11:54 am)84 °F (2:54 am)
Dewpoint75 °F75.9 °F (1:54 am)73.9 °F (11:54 am)
Humidity67.6 %76 % (2:54 am)57 % (11:54 am)
Barometer29.86 in29.90 in (10:54 pm)29.83 in (3:54 pm)
Wind Speed8.6 mph13.8 mph (11:54 am)
Wind Gust17.3 mph (12:54 pm)
Weather ElementAverage
Visibility10 mi
Wind DirectionENE (83.9 °)

Weather ElementTotal
Precipitation---
Cooling Degree Days22.5 (Base 65)
Growing Degree Days37.5 (Base 50)
Averaged from 23 records on July 28, 2013
WEATHER CONDITIONS BREAKOUT
WIND DIRECTION BREAKOUT
WEATHER BY HOUR - JULY 28, 2013
[ °C ]   °F
Local TimeTemperatureDewpointHumidityBarometerVisibilityWind DirectionWind SpeedGust SpeedPrecipitationEventsConditions
1:54 AM84.9 °F75.9 °F74 %29.85 in10.0 miEast (90°)8.1 mphClear
2:54 AM84.0 °F75.9 °F76 %29.85 in10.0 miEast (100°)4.6 mphPartly Cloudy
3:54 AM84.0 °F75.9 °F76 %29.85 in10.0 miEast (90°)5.8 mphPartly Cloudy
4:54 AM84.0 °F75.0 °F74 %29.85 in10.0 miEast (100°)6.9 mphPartly Cloudy
5:54 AM84.0 °F75.0 °F74 %29.86 in10.0 miEast (100°)5.8 mphScattered Clouds
6:54 AM84.0 °F75.9 °F76 %29.87 in10.0 miEast (100°)8.1 mphClear
7:54 AM87.1 °F75.0 °F67 %29.88 in10.0 miEast (100°)10.4 mphClear
8:54 AM88.0 °F75.0 °F65 %29.88 in10.0 miEast (90°)11.5 mphPartly Cloudy
9:54 AM88.0 °F75.9 °F67 %29.88 in10.0 miEast (90°)10.4 mphScattered Clouds
10:54 AM90.0 °F75.0 °F61 %29.88 in10.0 miEast (90°)10.4 mphScattered Clouds
11:54 AM91.0 °F73.9 °F57 %29.86 in10.0 miENE (70°)13.8 mphPartly Cloudy
12:54 PM91.0 °F73.9 °F57 %29.86 in10.0 miEast (100°)8.1 mph17.3 mphPartly Cloudy
1:54 PM91.0 °F75.0 °F59 %29.85 in10.0 miEast (80°)10.4 mphClear
2:54 PM91.0 °F73.9 °F57 %29.84 in10.0 miENE (70°)12.7 mphPartly Cloudy
3:54 PM90.0 °F75.0 °F61 %29.83 in10.0 miENE (70°)11.5 mphScattered Clouds
4:54 PM90.0 °F75.0 °F61 %29.83 in10.0 miENE (70°)12.7 mphPartly Cloudy
5:54 PM88.0 °F75.0 °F65 %29.84 in10.0 miENE (70°)11.5 mphPartly Cloudy
6:54 PM86.0 °F73.9 °F67 %29.85 in10.0 miENE (70°)5.8 mphPartly Cloudy
7:54 PM84.9 °F75.0 °F72 %29.86 in10.0 miEast (80°)5.8 mphPartly Cloudy
8:54 PM84.9 °F75.0 °F72 %29.88 in10.0 miENE (70°)4.6 mphPartly Cloudy
9:54 PM84.9 °F75.0 °F72 %29.89 in10.0 miEast (80°)5.8 mphPartly Cloudy
10:54 PM84.9 °F75.0 °F72 %29.90 in10.0 miEast (80°)6.9 mphPartly Cloudy
11:54 PM84.9 °F75.0 °F72 %29.88 in10.0 miENE (70°)6.9 mphPartly Cloudy
Hourly data recorded from PGUM, located miles away from Yigo, Guam







STORIES FROM OUR PARTNERS